Radiation Dose at Monitoring Post of Fukushima Daini Nuclear Power Station
Date,Time,MP-1(microSv/h),MP-2(microSv/h),MP-3(microSv/h),MP-4(microSv/h),MP-5(microSv/h),MP-6(microSv/h),MP-7(microSv/h),Wind Direction,Wind Velocity(m/s),Rain
2016/12/03,00:00,0.394,0.232,0.398,0.366,0.343,0.189,0.163,southwest,5.6,No
2016/12/03,00:10,0.394,0.232,0.396,0.367,0.341,0.189,0.162,west-southwest,6.4,No
2016/12/03,00:20,0.396,0.232,0.397,0.366,0.343,0.190,0.162,west-southwest,8.1,No
2016/12/03,00:30,0.393,0.231,0.397,0.367,0.346,0.190,0.163,west-southwest,6.6,No
2016/12/03,00:40,0.394,0.230,0.395,0.367,0.343,0.191,0.163,southwest,5.7,No
2016/12/03,00:50,0.396,0.231,0.396,0.366,0.343,0.190,0.163,west-southwest,4.8,No
2016/12/03,01:00,0.395,0.232,0.397,0.366,0.345,0.190,0.163,west-southwest,4.6,No
2016/12/03,01:10,0.394,0.232,0.397,0.368,0.343,0.190,0.163,west-southwest,3.6,No
2016/12/03,01:20,0.396,0.231,0.397,0.365,0.342,0.190,0.163,west-southwest,5.2,No
2016/12/03,01:30,0.394,0.233,0.397,0.366,0.345,0.189,0.163,west-southwest,7.4,No
2016/12/03,01:40,0.393,0.232,0.395,0.366,0.343,0.190,0.162,west-southwest,8.6,No
2016/12/03,01:50,0.395,0.231,0.397,0.367,0.343,0.190,0.163,west-southwest,7.0,No
2016/12/03,02:00,0.397,0.232,0.397,0.366,0.345,0.189,0.163,west-southwest,5.7,No
2016/12/03,02:10,0.395,0.232,0.396,0.368,0.343,0.190,0.162,southwest,3.0,No
2016/12/03,02:20,0.395,0.231,0.397,0.364,0.342,0.190,0.161,south,3.5,No
2016/12/03,02:30,0.396,0.232,0.397,0.367,0.345,0.191,0.163,south,4.7,No
2016/12/03,02:40,0.394,0.232,0.396,0.369,0.343,0.191,0.162,south,5.8,No
2016/12/03,02:50,0.394,0.232,0.397,0.367,0.344,0.190,0.163,south-southwest,6.4,No
2016/12/03,03:00,0.396,0.231,0.396,0.366,0.344,0.189,0.162,south-southwest,5.7,No
2016/12/03,03:10,0.395,0.233,0.396,0.367,0.342,0.190,0.163,south-southwest,6.7,No
2016/12/03,03:20,0.396,0.231,0.397,0.367,0.343,0.190,0.163,southwest,5.8,No
2016/12/03,03:30,0.395,0.231,0.395,0.367,0.342,0.190,0.161,west-southwest,6.3,No
2016/12/03,03:40,0.394,0.232,0.395,0.367,0.345,0.190,0.162,west-southwest,6.7,No
2016/12/03,03:50,0.394,0.231,0.397,0.367,0.344,0.190,0.162,west,8.7,No
2016/12/03,04:00,0.396,0.232,0.395,0.367,0.344,0.191,0.161,west,8.6,No
2016/12/03,04:10,0.395,0.231,0.396,0.367,0.344,0.189,0.161,west,9.1,No
2016/12/03,04:20,0.395,0.232,0.397,0.368,0.342,0.190,0.162,west,8.6,No
2016/12/03,04:30,0.395,0.231,0.396,0.367,0.344,0.189,0.162,west-northwest,8.2,No
2016/12/03,04:40,0.394,0.232,0.396,0.366,0.346,0.190,0.162,west-northwest,7.5,No
2016/12/03,04:50,0.392,0.232,0.398,0.369,0.342,0.189,0.162,west-northwest,6.3,No
2016/12/03,05:00,0.395,0.231,0.395,0.367,0.342,0.189,0.162,northwest,5.8,No
2016/12/03,05:10,0.394,0.231,0.396,0.368,0.344,0.189,0.163,northwest,3.3,No
2016/12/03,05:20,0.394,0.231,0.397,0.368,0.344,0.190,0.162,north-northwest,3.9,No
2016/12/03,05:30,0.397,0.233,0.395,0.365,0.343,0.190,0.162,north-northwest,4.4,No
2016/12/03,05:40,0.396,0.231,0.398,0.367,0.344,0.189,0.162,north-northwest,5.8,No
2016/12/03,05:50,0.395,0.232,0.398,0.366,0.343,0.189,0.163,west-northwest,4.4,No
2016/12/03,06:00,0.396,0.231,0.395,0.367,0.343,0.190,0.162,west-northwest,4.2,No
2016/12/03,06:10,0.395,0.232,0.396,0.367,0.343,0.189,0.162,west-northwest,5.3,No
2016/12/03,06:20,0.394,0.231,0.398,0.369,0.345,0.191,0.163,west-northwest,5.5,No
2016/12/03,06:30,0.394,0.231,0.396,0.368,0.343,0.190,0.162,west-northwest,4.2,No
2016/12/03,06:40,0.395,0.231,0.397,0.366,0.343,0.189,0.162,west-northwest,3.9,No
2016/12/03,06:50,0.395,0.231,0.397,0.368,0.344,0.189,0.163,west-northwest,5.1,No
2016/12/03,07:00,0.395,0.231,0.396,0.366,0.343,0.189,0.163,west-northwest,4.6,No
2016/12/03,07:10,0.396,0.232,0.398,0.367,0.343,0.191,0.162,west-northwest,5.3,No
2016/12/03,07:20,0.394,0.231,0.397,0.365,0.345,0.189,0.163,west-northwest,5.8,No
2016/12/03,07:30,0.393,0.232,0.395,0.365,0.341,0.189,0.162,northwest,3.6,No
2016/12/03,07:40,0.395,0.232,0.397,0.365,0.344,0.191,0.162,north-northwest,2.8,No
2016/12/03,07:50,0.396,0.230,0.396,0.366,0.343,0.189,0.162,northwest,3.2,No
2016/12/03,08:00,0.393,0.231,0.397,0.366,0.342,0.189,0.162,west-northwest,3.9,No
2016/12/03,08:10,0.396,0.232,0.398,0.365,0.345,0.190,0.162,west-northwest,4.6,No
2016/12/03,08:20,0.394,0.232,0.396,0.365,0.342,0.190,0.161,northwest,5.4,No
2016/12/03,08:30,0.394,0.233,0.396,0.365,0.341,0.190,0.161,west-northwest,5.0,No
2016/12/03,08:40,0.394,0.232,0.396,0.363,0.344,0.189,0.162,west-northwest,4.8,No
2016/12/03,08:50,0.395,0.232,0.394,0.365,0.342,0.191,0.162,northwest,3.9,No
2016/12/03,09:00,0.394,0.231,0.398,0.363,0.342,0.190,0.162,north-northwest,3.4,No
2016/12/03,09:10,0.397,0.233,0.396,0.366,0.345,0.190,0.162,northwest,4.7,No
2016/12/03,09:20,0.395,0.231,0.395,0.364,0.342,0.188,0.162,west-northwest,4.2,No
2016/12/03,09:30,0.392,0.231,0.396,0.365,0.344,0.190,0.161,northwest,3.1,No
2016/12/03,09:40,0.394,0.232,0.396,0.365,0.341,0.190,0.161,north-northwest,3.6,No
2016/12/03,09:50,0.393,0.232,0.397,0.366,0.344,0.190,0.163,north-northwest,3.5,No
2016/12/03,10:00,0.395,0.231,0.396,0.367,0.341,0.190,0.161,north,3.0,No
2016/12/03,10:10,0.394,0.232,0.396,0.364,0.343,0.189,0.163,north,1.6,No
2016/12/03,10:20,0.394,0.230,0.398,0.366,0.339,0.190,0.162,northwest,1.5,No
2016/12/03,10:30,0.389,0.232,0.395,0.365,0.343,0.192,0.162,north-northwest,1.9,No
2016/12/03,10:40,0.392,0.229,0.398,0.367,0.342,0.190,0.163,north,2.2,No
2016/12/03,10:50,0.393,0.230,0.392,0.365,0.341,0.191,0.162,-,CALM,No
2016/12/03,11:00,0.388,0.232,0.398,0.364,0.342,0.191,0.162,north,0.8,No
2016/12/03,11:10,0.393,0.230,0.393,0.366,0.339,0.191,0.162,north-northeast,1.7,No
2016/12/03,11:20,0.393,0.232,0.396,0.364,0.340,0.190,0.162,north-northwest,3.5,No
2016/12/03,11:30,0.392,0.232,0.394,0.368,0.343,0.190,0.163,north-northwest,5.3,No
2016/12/03,11:40,0.395,0.232,0.396,0.366,0.340,0.190,0.162,north-northwest,6.1,No
2016/12/03,11:50,0.393,0.231,0.393,0.366,0.343,0.191,0.164,northwest,4.2,No
2016/12/03,12:00,0.396,0.232,0.397,0.367,0.343,0.188,0.163,west-northwest,4.5,No
2016/12/03,12:10,0.394,0.232,0.394,0.364,0.340,0.191,0.162,northwest,4.2,No
2016/12/03,12:20,0.396,0.231,0.392,0.367,0.343,0.189,0.164,north-northeast,2.7,No
2016/12/03,12:30,0.393,0.232,0.396,0.365,0.343,0.191,0.162,northeast,1.7,No
2016/12/03,12:40,0.396,0.231,0.393,0.365,0.343,0.190,0.162,northeast,2.4,No
2016/12/03,12:50,0.394,0.232,0.397,0.368,0.343,0.191,0.163,northeast,4.4,No
2016/12/03,13:00,0.399,0.232,0.394,0.365,0.345,0.190,0.163,north-northeast,3.1,No
2016/12/03,13:10,0.394,0.232,0.395,0.366,0.342,0.190,0.164,northeast,3.1,No
2016/12/03,13:20,0.395,0.232,0.397,0.366,0.348,0.190,0.162,northeast,3.6,No
2016/12/03,13:30,0.395,0.232,0.393,0.364,0.344,0.190,0.163,east-northeast,3.2,No
2016/12/03,13:40,0.398,0.231,0.396,0.369,0.346,0.190,0.163,east-northeast,3.2,No
2016/12/03,13:50,0.395,0.232,0.396,0.367,0.344,0.190,0.164,east-northeast,2.5,No
2016/12/03,14:00,0.395,0.231,0.397,0.369,0.344,0.190,0.163,northeast,1.4,No
2016/12/03,14:10,0.395,0.233,0.395,0.367,0.344,0.190,0.163,east-northeast,0.5,No
2016/12/03,14:20,0.395,0.232,0.397,0.368,0.343,0.190,0.162,-,CALM,No
2016/12/03,14:30,0.395,0.232,0.398,0.366,0.344,0.189,0.163,south-southeast,0.5,No
2016/12/03,14:40,0.396,0.232,0.396,0.370,0.343,0.191,0.163,east,0.7,No
2016/12/03,14:50,0.396,0.231,0.398,0.366,0.344,0.189,0.163,southeast,1.1,No
2016/12/03,15:00,0.395,0.232,0.395,0.367,0.345,0.190,0.163,east-southeast,0.5,No
2016/12/03,15:10,0.394,0.232,0.399,0.366,0.345,0.189,0.163,east,0.8,No
2016/12/03,15:20,0.396,0.232,0.397,0.368,0.344,0.189,0.163,east,1.7,No
2016/12/03,15:30,0.395,0.233,0.398,0.367,0.343,0.189,0.164,east,1.4,No
2016/12/03,15:40,0.393,0.232,0.396,0.368,0.344,0.191,0.164,east-southeast,1.3,No
2016/12/03,15:50,0.396,0.232,0.396,0.368,0.345,0.190,0.164,east-southeast,1.4,No
2016/12/03,16:00,0.395,0.232,0.398,0.366,0.345,0.190,0.163,southeast,1.1,No
2016/12/03,16:10,0.393,0.231,0.396,0.370,0.344,0.189,0.162,-,CALM,No
2016/12/03,16:20,0.397,0.232,0.400,0.366,0.343,0.190,0.163,-,CALM,No
2016/12/03,16:30,0.395,0.232,0.396,0.368,0.347,0.190,0.163,-,CALM,No
2016/12/03,16:40,0.396,0.232,0.397,0.368,0.342,0.190,0.163,south-southeast,1.4,No
2016/12/03,16:50,0.394,0.231,0.399,0.368,0.343,0.190,0.163,south-southeast,1.4,No
2016/12/03,17:00,0.395,0.232,0.396,0.368,0.346,0.190,0.165,south,1.2,No
2016/12/03,17:10,0.395,0.232,0.398,0.366,0.344,0.190,0.163,south-southwest,1.1,No
2016/12/03,17:20,0.397,0.231,0.397,0.367,0.345,0.192,0.163,south-southwest,1.5,No
2016/12/03,17:30,0.396,0.232,0.399,0.369,0.345,0.190,0.163,south-southwest,1.0,No
2016/12/03,17:40,0.395,0.232,0.398,0.366,0.343,0.191,0.163,-,CALM,No
2016/12/03,17:50,0.395,0.231,0.396,0.369,0.344,0.191,0.164,-,CALM,No
2016/12/03,18:00,0.395,0.232,0.395,0.368,0.345,0.190,0.164,west-southwest,0.9,No
2016/12/03,18:10,0.396,0.232,0.399,0.367,0.344,0.191,0.163,south-southwest,1.1,No
2016/12/03,18:20,0.395,0.232,0.397,0.367,0.344,0.191,0.163,southwest,0.5,No
2016/12/03,18:30,0.396,0.231,0.397,0.368,0.345,0.190,0.163,south-southwest,0.8,No
2016/12/03,18:40,0.395,0.232,0.399,0.367,0.345,0.190,0.163,south-southwest,1.2,No
2016/12/03,18:50,0.396,0.233,0.396,0.369,0.343,0.190,0.163,southwest,1.9,No
2016/12/03,19:00,0.396,0.232,0.397,0.369,0.343,0.191,0.163,southwest,0.8,No
2016/12/03,19:10,0.395,0.233,0.398,0.367,0.344,0.190,0.164,west-southwest,0.8,No
2016/12/03,19:20,0.398,0.232,0.396,0.369,0.344,0.191,0.163,southwest,0.9,No
2016/12/03,19:30,0.395,0.233,0.400,0.368,0.346,0.190,0.163,south,1.1,No
2016/12/03,19:40,0.396,0.234,0.399,0.366,0.343,0.190,0.164,south-southwest,1.7,No
2016/12/03,19:50,0.396,0.232,0.396,0.370,0.343,0.191,0.163,south-southwest,2.1,No
2016/12/03,20:00,0.395,0.232,0.398,0.368,0.345,0.191,0.163,south-southwest,1.7,No
2016/12/03,20:10,0.395,0.232,0.398,0.367,0.344,0.190,0.164,south-southwest,2.1,No
2016/12/03,20:20,0.397,0.232,0.397,0.369,0.342,0.190,0.164,south-southwest,1.9,No
2016/12/03,20:30,0.395,0.233,0.398,0.368,0.345,0.190,0.164,south-southwest,1.5,No
2016/12/03,20:40,0.395,0.233,0.397,0.367,0.343,0.191,0.162,south,1.4,No
2016/12/03,20:50,0.397,0.231,0.396,0.370,0.343,0.191,0.163,south,1.4,No
2016/12/03,21:00,0.394,0.232,0.398,0.368,0.345,0.191,0.163,south-southwest,1.8,No
2016/12/03,21:10,0.394,0.232,0.396,0.367,0.344,0.192,0.163,south-southwest,2.2,No
2016/12/03,21:20,0.397,0.233,0.397,0.368,0.343,0.191,0.164,south-southwest,2.5,No
2016/12/03,21:30,0.394,0.231,0.399,0.367,0.345,0.191,0.164,south-southwest,2.5,No
2016/12/03,21:40,0.394,0.233,0.398,0.367,0.343,0.189,0.163,south-southwest,2.5,No
2016/12/03,21:50,0.395,0.232,0.397,0.368,0.344,0.191,0.163,south,1.9,No
2016/12/03,22:00,0.396,0.231,0.399,0.368,0.344,0.190,0.164,south-southeast,2.2,No
2016/12/03,22:10,0.394,0.232,0.397,0.368,0.342,0.190,0.163,south,2.4,No
2016/12/03,22:20,0.395,0.232,0.397,0.369,0.345,0.189,0.164,south,1.9,No
2016/12/03,22:30,0.394,0.232,0.399,0.367,0.345,0.191,0.164,south,1.9,No
2016/12/03,22:40,0.396,0.232,0.396,0.368,0.344,0.190,0.164,south,2.0,No
2016/12/03,22:50,0.396,0.233,0.398,0.368,0.344,0.189,0.163,south,1.8,No
2016/12/03,23:00,0.395,0.233,0.398,0.366,0.343,0.190,0.164,south,2.2,No
2016/12/03,23:10,0.395,0.232,0.396,0.369,0.344,0.190,0.164,south,1.8,No
2016/12/03,23:20,0.395,0.233,0.397,0.367,0.344,0.190,0.164,south,1.7,No
2016/12/03,23:30,0.394,0.232,0.397,0.366,0.343,0.191,0.163,south-southwest,1.8,No
2016/12/03,23:40,0.398,0.232,0.396,0.368,0.345,0.190,0.163,south-southwest,1.9,No
2016/12/03,23:50,0.396,0.232,0.399,0.369,0.344,0.190,0.164,south,1.4,No
